Location: Maccacari
(45.1333°N, 11.1333°E)
Time: 18:57:46
(UTC+00:00)

USA 234 - Pass Details

Date: 21 January 2021
Orbit: 1100 x 1107 km, 123.0° (Epoch: 01 March)

Event Time Altitude Azimuth Distance (km) Brightness Sun altitude
Exits shadow 19:43:06 43° 324° (NW) 1,500 4.1 -37.6°
Drops below altitude 10° 19:47:21 10° 311° (NW) 2,966 6.1 -38.4°
Sets 19:49:51 0° 310° (NW) 3,927 6.9 -38.8°
